sat.trackr.live / text

‹ back to catalog

STARLINK-35041

NORAD 66188 · 2025-243M

PAYLOAD ACTIVE UNKNOWN

§ Identity

Operator
Country
US
Launch date
2025-10-26
Launch site
AFETR
Launch vehicle
Mass (kg)
RCS (m²)

Purposes: comms

External: N2YO · Heavens-Above · Gunter

§ Orbital elements

Epoch: 2026-09-20T14:29:22.784352Z

Period
93.85 min
Inclination
53.1593°
Eccentricity
0.0001527
Mean motion
15.34399687 rev/d
Perigee alt
461.7 km
Apogee alt
463.7 km
Semi-major
6,840.8 km
B*
4.0132e-4
RAAN
57.2290°
Arg perigee
85.8578°
Mean anomaly
274.2599°
Rev number
5,053

§ Raw data

STARLINK-350411 66188U 25243M   26263.60373593  .00013207  00000+0  40132-3 0  99952 66188  53.1593  57.2290 0001527  85.8578 274.2599 15.34399687 50534

JSON: /api/v1/satellites/66188 · /tle

For live sub-satellite position, see the globe view (requires WebGL).

§ Visibility from observer

Set your observer location to see the next 7 days of passes ≥ 10°. The values pass through the URL so the page stays shareable.

No JS? Fill the form by hand. The geolocation button needs JavaScript.